General Aviation Weather

Text Reports

Enter one or more of the following location identifiers separated by a space:

Zip Code, Four-Character ICAO or Three-Character IATA airport codes.

METAR - Aviation Routine Weather Report
KIKK - Kankakee, Illinois
Updated at 2:15 PM GMT on October 02, 2014 (9:15 AM CDT):
METAR KIKK 021415Z AUTO 34003KT 4SM BR OVC006 18/18 A2991 RMK AO2 T01840178
TAF - Terminal Area Forecast
KIKK - Kankakee, Illinois
Updated at 2:15 PM GMT on October 02, 2014 (9:15 AM CDT):
No TAF is currently available for this location.
Decoded:
No decoded TAF is available.
PIREP - Pilot Weather Report
KIKK - Kankakee, Illinois
Updated at 2:15 PM GMT on October 02, 2014 (9:15 AM CDT):
No PIREP is currently available for this location.
AIRMET - Airmens Meteorological Information
KIKK - Kankakee, Illinois
Updated at 2:15 PM GMT on October 02, 2014 (9:15 AM CDT):
No AIRMET is currently available for this location.
SIGMET - Significant Meteorological Information
KIKK - Kankakee, Illinois
Updated at 2:15 PM GMT on October 02, 2014 (9:15 AM CDT):
No SIGMET is currently available for this location.
NOTAM - Notice to Airmen
KIKK - Kankakee, Illinois
Updated at 2:15 PM GMT on October 02, 2014 (9:15 AM CDT):
No NOTAM is currently available for this location.
Forecast Area
KIKK - Kankakee, Illinois
Updated at 2:15 PM GMT on October 02, 2014 (9:15 AM CDT):
No NOTAM is currently available for this location.
Aviation Weather Maps